map of HAH home
HAH - Airport
Location
City:  Moroni, Comoros
Near (Alt.):Hahaya
Name:Prince Sad Ibrahim International Airport
Old (Alt.):Moroni Hahaya International Airport
ICAO:FMCH
IATA:HAH

Details
Type:Airport (Aerodrome, Airfield)
Use:Public/Civil, International (customs port of entry)
Latitude:1132'11"S (-11.536518)
Longitude:4316'17"E (43.271325)
Elevation:89 ft (27 m)
Variation:6.54W (WMM2015v2 magnetic declination)
-0.05 annual change
Runways:1
Longest:9514 × 148 ft (2900 × 45 m), paved

Time
Time Zone:UTC+3
Local Time:

Weather
METAR:FMCH 041400Z VRB02KT 9999 FEW020 BKN060 30/23 Q1011 NOSIG
TAF:FMCH 041100Z 0412/0518 10010KT 9999 SCT020 SCT030 PROB30
TEMPO 0412/0416 4000 TS SHRA SCT020CB BKN030 PROB30
TEMPO 0418/0420 4500 SHRA
BECMG 0505/0507 30010KT

Related Locations
Nearby:
Farthest:ITO: 11103 mi / 17869 km
Hilo [Hilo Intl], Hawaii, HI, US

Find:

   beyond  
but within

Other Information
Maps:
NOTAMs:
Links:
Sources:

  
  • flag of Comoros
  

Sectional Chart

Flight Planning
at skyvector.com

Satellite Image

Google Maps Satellite view

 

Copyright © 2004-2019 Karl L. Swartz. All rights reserved.
The Great Circle Mapper name and logo are trademarks of the Great Circle Mapper.
All other trademarks mentioned herein belong to their respective owners.
Please see credits for attibutions and further copyright information.

  Follow gcmap on Facebook Follow gcmap on Twitter GCmap on LinkedIn

hCard Microformat

Geo Microformat